Location: Le Hiès Ruisseau
(43.3000°N, 0.4500°W)
Time: 02:11:39
(UTC+00:00)

ATLAS CENTAUR R/B - Pass Details

Date: 28 January 2023
Orbit: 450 x 653 km, 64.7° (Epoch: 19 March)

Event Time Altitude Azimuth Distance (km) Brightness Sun altitude
Rises 17:31:57 0° 184° (S) 2,978 5.4 -4.9°
Reaches altitude 10° 17:34:31 10° 173° (S) 2,070 4.4 -5.3°
Maximum altitude 17:38:32 28° 114° (ESE) 1,220 2.7 -6.0°
Drops below altitude 10° 17:42:30 10° 56° (NE) 2,039 3.6 -6.7°
Enters shadow 17:43:15 - 52° (NE) 2,295 3.9 -6.8°
